This demonstration page uses our WeatherBlox Daily Observations layout. Learn more.

Left ArrowRight Arrow

39.51506, -84.39828

Hourly Observations for March 31, 2020

Temp ( °F °C ) Dew Point ( °F °C ) Humidity (%) Winds ( mph kmh ) Pressure ( in mb ) Visibility ( mi km ) Precip ( " mm )
12:15 am 00:15 Clear 44 6.7 35 1.9 72 72 N 3 6 30.12 1020 10 16.0934 0 0
12:35 am 00:35 Clear 43 6.2 35 1.9 74 74 N 3 6 30.11 1020 10 16.0934 0 0
12:55 am 00:55 Clear 43 6.1 35 1.9 75 75 N 6 9 30.09 1019 10 16.0934 0 0
1:15 am 01:15 Clear 42 5.8 35 1.9 76 76 Calm 30.09 1019 10 16.0934 0 0
1:35 am 01:35 Clear 43 5.9 35 1.8 75 75 N 7 11 30.1 1019 10 16.0934 0 0
1:55 am 01:55 Clear 42 5.8 35 1.6 75 75 N 9 15 30.1 1019 10 16.0934 0 0
2:15 am 02:15 Clear 42 5.7 35 1.5 75 75 N 8 13 30.09 1019 10 16.0934 0 0
2:35 am 02:35 Clear 42 5.5 35 1.6 76 76 NNW 6 9 30.09 1019 10 16.0934 0 0
2:55 am 02:55 Clear 42 5.5 35 1.5 76 76 NNW 6 9 30.09 1019 10 16.0934 0 0
3:15 am 03:15 Clear 42 5.3 34 1.3 76 76 N 6 9 30.08 1019 10 16.0934 0 0
3:35 am 03:35 Clear 41 5.2 34 1.2 76 76 N 7 11 30.07 1018 10 16.0934 0 0
3:55 am 03:55 Clear 41 5 33 0.8 75 75 N 5 7 30.08 1019 10 16.0934 0 0
4:15 am 04:15 Clear 41 4.8 33 0.6 75 75 NNW 7 11 30.07 1018 10 16.0934 0 0
4:35 am 04:35 Clear 40 4.6 33 0.6 76 76 Calm 30.07 1018 10 16.0934 0 0
4:55 am 04:55 Clear 40 4.5 33 0.4 75 75 N 6 9 30.06 1018 10 16.0934 0 0
5:15 am 05:15 Clear 40 4.3 33 0.4 76 76 NNW 5 7 30.07 1018 10 16.0934 0 0
5:35 am 05:35 Clear 40 4.2 33 0.6 78 78 NNW 5 7 30.06 1018 10 16.0934 0 0
5:55 am 05:55 Clear 39 3.9 33 0.7 80 80 Calm 30.05 1018 10 16.0934 0 0
6:15 am 06:15 Clear 39 3.8 33 0.8 81 81 NNW 3 6 30.05 1018 10 16.0934 0 0
6:35 am 06:35 Clear 39 3.8 33 0.7 80 80 Calm 30.07 1018 10 16.0934 0 0
6:55 am 06:55 Clear 38 3.6 34 0.9 83 83 Calm 30.07 1018 10 16.0934 0 0
7:15 am 07:15 Clear 38 3.5 34 1 84 84 N 5 7 30.07 1018 10 16.0934 0 0
7:35 am 07:35 Sunny 38 3.4 34 1 84 84 N 5 7 30.06 1018 10 16.0934 0 0
7:55 am 07:55 Sunny 38 3.5 34 1.1 84 84 NNE 6 9 30.03 1017 10 16.0934 0 0
8:15 am 08:15 Sunny 39 3.7 33 0.8 82 82 NNE 8 13 30.02 1016 10 16.0934 0 0
8:35 am 08:35 Sunny 39 3.8 33 0.8 81 81 NNE 8 13 30.02 1017 10 16.0934 0 0
8:55 am 08:55 Sunny 39 4 34 1 81 81 N 6 9 30.03 1017 10 16.0934 0 0
9:15 am 09:15 Sunny 39 4.1 34 0.9 80 80 NNE 8 13 30.02 1017 10 16.0934 0 0
9:35 am 09:35 Sunny 40 4.4 34 1.3 81 81 NNE 7 11 30 1016 10 16.0934 0 0
9:55 am 09:55 Mostly Cloudy 40 4.7 34 1.3 79 79 NE 5 7 30.01 1016 10 16.0934 0 0
10:15 am 10:15 Partly Cloudy 41 5.2 35 1.6 78 78 NE 6 9 30 1016 10 16.0934 0 0
10:35 am 10:35 Cloudy 42 5.4 35 1.7 77 77 NE 5 7 30 1016 10 16.0934 0 0
10:55 am 10:55 Partly Cloudy 42 5.7 35 1.6 75 75 NE 3 6 30 1016 10 16.0934 0 0
11:15 am 11:15 Partly Cloudy 42 5.8 35 1.6 75 75 NE 7 11 29.99 1016 10 16.0934 0 0
11:35 am 11:35 Sunny 43 6.3 35 1.8 73 73 ENE 6 9 29.98 1015 10 16.0934 0 0
11:55 am 11:55 Partly Cloudy 44 6.9 36 2.2 72 72 ENE 8 13 29.96 1014 10 16.0934 0 0
12:15 pm 12:15 Partly Cloudy 45 7 36 2 71 71 NE 6 9 29.95 1014 10 16.0934 0 0
12:35 pm 12:35 Mostly Cloudy 45 7 35 1.9 70 70 N 7 11 29.95 1014 10 16.0934 0 0
12:55 pm 12:55 Cloudy 45 7 35 1.9 70 70 NNE 7 11 29.95 1014 10 16.0934 0 0
1:15 pm 13:15 Cloudy 45 7.2 35 1.7 68 68 NE 5 7 29.94 1014 10 16.0934 0 0
1:35 pm 13:35 Cloudy 45 7 34 1.3 67 67 NNE 5 7 29.94 1014 10 16.0934 0 0
1:55 pm 13:55 Cloudy 45 7.1 34 1 65 65 Calm 29.93 1013 10 16.0934 0 0
2:15 pm 14:15 Cloudy 45 7.1 34 1.2 66 66 N 3 6 29.93 1013 10 16.0934 0 0
2:35 pm 14:35 Cloudy 45 7.3 35 1.4 66 66 Calm 29.92 1013 10 16.0934 0 0
2:55 pm 14:55 Cloudy 45 7.3 34 1.3 66 66 NNW 7 11 29.92 1013 10 16.0934 0 0
3:15 pm 15:15 Cloudy 45 7.4 35 1.4 66 66 N 7 11 29.91 1013 10 16.0934 0 0
3:35 pm 15:35 Cloudy 46 7.5 34 1 64 64 N 8 13 29.91 1013 10 16.0934 0 0
3:55 pm 15:55 Cloudy 46 7.7 34 1.3 64 64 N 8 13 29.89 1012 10 16.0934 0 0
4:15 pm 16:15 Cloudy 47 8.1 35 1.8 65 65 NNE 10 17 29.88 1012 10 16.0934 0 0
4:35 pm 16:35 Cloudy 46 7.9 33 0.8 61 61 N 9 15 29.87 1012 10 16.0934 0 0
4:55 pm 16:55 Cloudy 46 7.9 34 1.2 63 63 N 10 17 29.87 1012 10 16.0934 0 0
5:15 pm 17:15 Cloudy 46 7.8 35 1.5 65 65 N 9 15 29.88 1012 10 16.0934 0 0
5:35 pm 17:35 Cloudy 46 7.6 34 1.3 65 65 N 9 15 29.89 1012 10 16.0934 0 0
5:55 pm 17:55 Cloudy 46 7.6 35 1.5 66 66 N 8 13 29.89 1012 10 16.0934 0 0
6:15 pm 18:15 Cloudy 45 7.4 35 1.4 66 66 N 8 13 29.9 1012 10 16.0934 0 0
6:35 pm 18:35 Cloudy 45 7.3 35 1.5 67 67 NNE 12 19 29.9 1012 10 16.0934 0 0
6:55 pm 18:55 Cloudy 45 7.1 35 1.6 68 68 NNE 10 17 29.9 1012 10 16.0934 0 0
7:15 pm 19:15 Cloudy 45 7 36 2.4 73 73 NNW 9 15 29.91 1013 10 16.0934 0 0
7:35 pm 19:35 Cloudy 44 6.8 37 2.7 75 75 NNW 8 13 29.91 1013 10 16.0934 0 0
7:55 pm 19:55 Cloudy 44 6.6 37 2.7 76 76 N 9 15 29.92 1013 10 16.0934 0 0
8:15 pm 20:15 Cloudy 44 6.5 37 2.7 77 77 NNW 10 17 29.92 1013 10 16.0934 0 0
8:35 pm 20:35 Cloudy with Light Rain 43 6 37 3 81 81 NNW 9 15 29.93 1014 10 16.0934 0 0
8:55 pm 20:55 Cloudy 42 5.5 38 3.6 88 88 NNW 6 9 29.93 1014 10 16.0934 0 0
9:15 pm 21:15 Cloudy 43 5.9 38 3.2 83 83 N 8 13 29.94 1014 10 16.0934 0 0
9:35 pm 21:35 Cloudy 42 5.8 38 3.5 85 85 NNW 6 9 29.94 1014 10 16.0934 0 0
9:55 pm 21:55 Cloudy 42 5.7 38 3.6 87 87 N 7 11 29.94 1014 10 16.0934 0 0
10:15 pm 22:15 Cloudy 42 5.7 38 3.5 86 86 N 7 11 29.94 1014 10 16.0934 0 0
10:35 pm 22:35 Cloudy 42 5.5 39 3.8 89 89 NNW 3 6 29.94 1014 10 16.0934 0 0
10:55 pm 22:55 Cloudy 42 5.4 39 3.9 90 90 NNW 5 7 29.94 1014 10 16.0934 0 0
11:15 pm 23:15 Cloudy 42 5.5 39 3.9 90 90 NNW 7 11 29.94 1014 10 16.0934 0 0
11:35 pm 23:35 Cloudy 42 5.6 39 3.8 88 88 NNW 6 9 29.94 1014 10 16.0934 0 0
11:55 pm 23:55 Cloudy 42 5.6 38 3.6 87 87 NNW 6 9 29.94 1014 10 16.0934 0 0

Powered by AerisWeather